Weather Roundup
Issued by NWS

Home | Current Version | Previous Version | Graphics & Text | Print | Product List | Glossary Off
Versions: 1 2 3 4 5 6 7 8 9 10 11 12 13 14 15 16 17 18 19 20 21 22 23 24 25 26 27 28 29 30 31 32 33 34 35 36 37 38 39 40 41 42 43 44 45 46 47 48 49 50

000
NZUS93 KARX 281110
HRRWXR

CURRENT HOURLY OBSERVATIONS ACROSS
MUCH OF THE UPPER MISSISSIPPI VALLEY
NATIONAL WEATHER SERVICE LA CROSSE WI
600 AM CDT FRI AUG 28 2015


...SOUTHEAST MINNESOTA...


CITY           SKY/WX    TMP DP  RH WIND       PRES   REMARKS
ROCHESTER      LGT RAIN  62  60  93 S15       30.04R
ROCHESTER/MAYO PTSUNNY   62  63 100 S10G17    30.03F
WINONA         CLOUDY    64  59  82 SE3       30.03S
AUSTIN         RAIN      63  61  94 S7        30.04S
ALBERT LEA     DRIZZLE   63  63 100 S3        30.03F
DODGE CENTER   CLOUDY    63  61  94 SW13      30.02S
PRESTON        LGT RAIN  60  58  92 S10       30.06S
OWATONNA       CLOUDY    64  61  88 S8        30.02S
FARIBAULT      RAIN      64  63  94 S8        30.00S
$$

...ELSEWHERE IN MINNESOTA...


CITY           SKY/WX    TMP DP  RH WIND       PRES   REMARKS
MINNEAPOLIS    CLOUDY    64  60  87 SE6       30.00R
INTNL FALLS    MOCLDY    61  60  97 CALM      29.92R
DULUTH         CLOUDY    61  58  90 SW6       29.97S
RED WING       CLOUDY    64  61  88 S5        30.01R
REDWOOD FALLS  CLOUDY    65  62  90 SE5       29.96S
MANKATO        CLOUDY    64  59  82 S10       30.00R
WORTHINGTON    CLOUDY    63  59  88 E10       29.95F
FAIRMONT       CLOUDY    63  57  82 SE9       29.99F
$$

...SOUTHWEST WISCONSIN...


CITY           SKY/WX    TMP DP  RH WIND       PRES   REMARKS
LA CROSSE      CLOUDY    65  59  81 S12       30.04F
PRAIRIE DU CHI CLOUDY    63  58  83 E7        30.07R
BOSCOBEL       CLOUDY    60  58  92 NE3       30.09S
LONE ROCK      CLOUDY    56  54  93 CALM      30.10F FOG
PLATTEVILLE    CLOUDY    60  59  96 SE3       30.10S
FORT MC COY    CLOUDY    61  58  87 CALM      30.07S
CAMP DOUGLAS   CLOUDY    56  56 100 SE6       30.07F
VIROQUA        PTSUNNY   60  60 100 SE6       30.08S
WIS DELLS      MOCLDY    57  54  90 S3        30.10S
$$

...ELSEWHERE IN WISCONSIN...


CITY           SKY/WX    TMP DP  RH WIND       PRES   REMARKS
MILWAUKEE      PTCLDY    59  55  87 CALM      30.12S
MADISON        MOCLDY    60  55  83 S7        30.11S
GREEN BAY      MOCLDY    56  54  93 SW3       30.11R
EAU CLAIRE     CLOUDY    61  57  87 SE6       30.01F
BLACK RVR FLS  FAIR      57  57 100 SE3       30.05S
MEDFORD        MOCLDY    57  56  96 S6        30.07S
WAUSAU         MOCLDY    60  58  92 SE6       30.07F
WIS RAPIDS     MOCLDY    58  55  90 S6        30.10F
MARSHFIELD     MOCLDY    56  53  90 S6        30.07F
RICE LAKE      PTCLDY    58  56  95 CALM      30.03F
$$

...NORTHEAST IOWA...


CITY           SKY/WX    TMP DP  RH WIND       PRES   REMARKS
DECORAH        CLOUDY    61  59  94 S3        30.06R
MASON CITY     RAIN      61  60  97 SE6       30.05S FOG
CHARLES CITY   CLOUDY    61  61 100 S8        30.06S
OELWEIN          N/A     61  59  94 SE5       30.08S
$$

...ELSEWHERE IN IOWA...


CITY           SKY/WX    TMP DP  RH WIND       PRES   REMARKS
DES MOINES     LGT RAIN  64  60  87 SE9       30.00R
IOWA CITY      CLOUDY    60  58  92 CALM      30.11R
FORT DODGE     CLOUDY    63  57  82 E14       29.98F
$$

...NORTHERN ILLINOIS...


CITY           SKY/WX    TMP DP  RH WIND       PRES   REMARKS
CHICAGO-OHARE  MOCLDY    59  55  87 S5        30.11S
CHICAGO-MIDWAY MOCLDY    62  55  77 S6        30.12R
MOLINE         CLOUDY    61  57  87 CALM      30.09R
ROCKFORD       CLOUDY    61  56  83 CALM      30.13R
PEORIA         MOCLDY    62  57  83 S3        30.10S
$$

NOTE: "FAIR" INDICATES FEW OR NO CLOUDS BELOW 12,000 FEET WITH NO
SIGNIFICANT WEATHER AND/OR OBSTRUCTIONS TO VISIBILITY. WIND
SPEEDS ARE IN MILES-PER-HOUR.



USA.gov is the U.S. government's official web portal to all federal, state and local government web resources and services.